When you browse on this site, cookies collect data to enhance your experience and personalize the content and advertising you see.
Visit our Privacy Policy to learn more. By continuing to use the site, you agree to this use of cookies and data.
  • In Czech Republic
  • List of Countries
  • For 7 days
  • Water Temperature
  • Satellite Maps
  • Weather Map
  • Weather Widgets
  • user-avatar
    Login

    Hourly Weather Wauwatosa

    Today, 21 April, Sunday

    Time Temperature Precipitation Wind Pressure Humidity
    00:00 +9°C° 0 mm 1 mps 738 mmHg 46%
    01:00 +8°C° 0 mm 2 mps 738 mmHg 49%
    02:00 +8°C° 0 mm 2 mps 738 mmHg 53%
    03:00 +8°C° 0 mm 2 mps 738 mmHg 56%
    04:00 +8°C° 0 mm 2 mps 738 mmHg 58%
    05:00 +8°C° 0 mm 3 mps 739 mmHg 61%
    06:00 +8°C° 0 mm 3 mps 739 mmHg 64%
    07:00 +10°C° 0 mm 3 mps 739 mmHg 60%
    08:00 +13°C° 0 mm 3 mps 740 mmHg 56%
    09:00 +16°C° 0 mm 3 mps 740 mmHg 53%
    10:00 +17°C° 0 mm 4 mps 740 mmHg 52%
    11:00 +19°C° 0 mm 4 mps 740 mmHg 51%
    12:00 +20°C° 0 mm 5 mps 740 mmHg 50%
    13:00 +20°C° 0 mm 5 mps 740 mmHg 50%
    14:00 +21°C° 0 mm 5 mps 740 mmHg 49%
    15:00 +21°C° 0 mm 5 mps 740 mmHg 48%
    16:00 +20°C° 0 mm 5 mps 740 mmHg 51%
    17:00 +19°C° 0 mm 4 mps 740 mmHg 54%
    18:00 +18°C° 0 mm 4 mps 740 mmHg 57%
    19:00 +17°C° 0 mm 4 mps 740 mmHg 58%
    20:00 +15°C° 0 mm 4 mps 741 mmHg 58%
    21:00 +15°C° 0 mm 4 mps 741 mmHg 59%
    22:00 +15°C° 0 mm 4 mps 741 mmHg 62%
    23:00 +15°C° 0 mm 5 mps 741 mmHg 64%

    Tomorrow, 22 April, Monday

    Time Temperature Precipitation Wind Pressure Humidity
    00:00 +15°C° 0 mm 5 mps 741 mmHg 67%
    01:00 +14°C° 0 mm 4 mps 741 mmHg 71%
    02:00 +14°C° 0 mm 4 mps 741 mmHg 75%
    03:00 +13°C° 0 mm 4 mps 740 mmHg 80%
    04:00 +13°C° 0 mm 4 mps 740 mmHg 82%
    05:00 +13°C° 0 mm 4 mps 740 mmHg 84%
    06:00 +13°C° 0 mm 4 mps 740 mmHg 86%
    07:00 +15°C° 0 mm 4 mps 740 mmHg 82%
    08:00 +16°C° 0 mm 5 mps 740 mmHg 77%
    09:00 +19°C° 0 mm 5 mps 740 mmHg 73%
    10:00 +20°C° 0 mm 5 mps 740 mmHg 69%
    11:00 +21°C° 0 mm 5 mps 740 mmHg 66%
    12:00 +22°C° 0 mm 6 mps 740 mmHg 62%
    13:00 +22°C° 0.7 mm 5 mps 739 mmHg 66%
    14:00 +21°C° 0.7 mm 5 mps 739 mmHg 69%
    15:00 +20°C° 0.7 mm 4 mps 738 mmHg 72%
    16:00 +20°C° 0.3 mm 4 mps 738 mmHg 74%
    17:00 +20°C° 0.3 mm 4 mps 738 mmHg 76%
    18:00 +20°C° 0.3 mm 4 mps 737 mmHg 77%
    19:00 +20°C° 0.2 mm 5 mps 737 mmHg 81%
    20:00 +19°C° 0.2 mm 5 mps 737 mmHg 84%
    21:00 +19°C° 0.2 mm 5 mps 737 mmHg 88%
    22:00 +17°C° 0.7 mm 5 mps 737 mmHg 90%
    23:00 +17°C° 0.7 mm 5 mps 737 mmHg 91%

    Day after tomorrow, 23 April, Tuesday

    Time Temperature Precipitation Wind Pressure Humidity
    00:00 +17°C° 0.7 mm 4 mps 736 mmHg 93%
    01:00 +17°C° 1 mm 4 mps 736 mmHg 94%
    02:00 +17°C° 1 mm 3 mps 736 mmHg 95%
    03:00 +17°C° 1 mm 3 mps 736 mmHg 95%
    04:00 +14°C° 0.6 mm 4 mps 736 mmHg 94%
    05:00 +12°C° 0.6 mm 5 mps 737 mmHg 92%
    06:00 +9°C° 0.6 mm 6 mps 737 mmHg 90%
    07:00 +9°C° 0.1 mm 6 mps 738 mmHg 88%
    08:00 +8°C° 0.1 mm 5 mps 738 mmHg 85%
    09:00 +8°C° 0.1 mm 5 mps 739 mmHg 83%
    10:00 +8°C° 0 mm 4 mps 740 mmHg 81%
    11:00 +8°C° 0 mm 4 mps 740 mmHg 80%
    12:00 +8°C° 0 mm 4 mps 741 mmHg 78%
    13:00 +10°C° 0 mm 3 mps 741 mmHg 77%
    14:00 +10°C° 0 mm 3 mps 741 mmHg 75%
    15:00 +12°C° 0 mm 2 mps 741 mmHg 74%
    16:00 +10°C° 0 mm 2 mps 742 mmHg 75%
    17:00 +10°C° 0 mm 2 mps 742 mmHg 76%
    18:00 +9°C° 0 mm 2 mps 742 mmHg 78%
    19:00 +8°C° 0 mm 2 mps 742 mmHg 76%
    20:00 +7°C° 0 mm 3 mps 743 mmHg 75%
    21:00 +5°C° 0 mm 3 mps 743 mmHg 73%
    22:00 +5°C° 0 mm 3 mps 743 mmHg 71%
    23:00 +5°C° 0 mm 3 mps 743 mmHg 68%

    24 April, Wednesday

    Time Temperature Precipitation Wind Pressure Humidity
    00:00 +4°C° 0 mm 3 mps 744 mmHg 65%
    01:00 +4°C° 0 mm 3 mps 744 mmHg 65%
    02:00 +3°C° 0 mm 3 mps 744 mmHg 65%
    03:00 +4°C° 0 mm 2 mps 744 mmHg 66%
    04:00 +3°C° 0 mm 3 mps 744 mmHg 67%
    05:00 +3°C° 0 mm 3 mps 744 mmHg 69%
    06:00 +3°C° 0 mm 3 mps 744 mmHg 71%
    07:00 +5°C° 0 mm 3 mps 744 mmHg 67%
    08:00 +7°C° 0 mm 3 mps 744 mmHg 62%
    09:00 +9°C° 0 mm 3 mps 744 mmHg 58%
    10:00 +10°C° 0 mm 3 mps 744 mmHg 54%
    11:00 +11°C° 0 mm 3 mps 743 mmHg 50%
    12:00 +11°C° 0 mm 3 mps 743 mmHg 47%
    13:00 +12°C° 0 mm 3 mps 743 mmHg 45%
    14:00 +12°C° 0 mm 3 mps 742 mmHg 43%
    15:00 +12°C° 0 mm 3 mps 742 mmHg 41%
    16:00 +11°C° 0 mm 3 mps 742 mmHg 45%
    17:00 +10°C° 0 mm 2 mps 741 mmHg 48%
    18:00 +9°C° 0 mm 2 mps 741 mmHg 51%
    19:00 +8°C° 0 mm 2 mps 741 mmHg 52%
    20:00 +8°C° 0 mm 2 mps 741 mmHg 53%
    21:00 +8°C° 0 mm 1 mps 741 mmHg 54%
    22:00 +8°C° 0.2 mm 1 mps 741 mmHg 58%
    23:00 +8°C° 0.2 mm 1 mps 741 mmHg 62%

    25 April, Thursday

    Time Temperature Precipitation Wind Pressure Humidity
    00:00 +8°C° 0.2 mm 1 mps 741 mmHg 66%
    01:00 +8°C° 0.4 mm 1 mps 740 mmHg 70%
    02:00 +8°C° 0.4 mm 1 mps 740 mmHg 74%
    03:00 +8°C° 0.4 mm 1 mps 740 mmHg 78%
    04:00 +8°C° 0.1 mm 1 mps 740 mmHg 79%
    05:00 +7°C° 0.1 mm 2 mps 740 mmHg 81%
    06:00 +8°C° 0.1 mm 2 mps 740 mmHg 82%
    07:00 +9°C° 0 mm 2 mps 740 mmHg 78%
    08:00 +10°C° 0 mm 2 mps 740 mmHg 74%
    09:00 +13°C° 0 mm 2 mps 740 mmHg 69%
    10:00 +15°C° 0 mm 2 mps 740 mmHg 66%
    11:00 +16°C° 0 mm 2 mps 740 mmHg 62%
    12:00 +19°C° 0 mm 1 mps 739 mmHg 58%
    13:00 +19°C° 0 mm 2 mps 739 mmHg 55%
    14:00 +19°C° 0 mm 2 mps 739 mmHg 53%
    15:00 +20°C° 0 mm 2 mps 739 mmHg 50%
    16:00 +19°C° 0 mm 2 mps 739 mmHg 55%
    17:00 +18°C° 0 mm 1 mps 739 mmHg 61%
    18:00 +16°C° 0 mm 1 mps 740 mmHg 67%
    19:00 +15°C° 0 mm 1 mps 740 mmHg 71%
    20:00 +15°C° 0 mm 2 mps 740 mmHg 75%
    21:00 +14°C° 0 mm 2 mps 741 mmHg 79%
    22:00 +13°C° 0 mm 2 mps 741 mmHg 81%
    23:00 +11°C° 0 mm 3 mps 741 mmHg 83%

    26 April, Friday

    Time Temperature Precipitation Wind Pressure Humidity
    00:00 +11°C° 0 mm 3 mps 742 mmHg 86%
    01:00 +10°C° 0 mm 3 mps 742 mmHg 86%
    02:00 +10°C° 0 mm 3 mps 742 mmHg 86%
    03:00 +9°C° 0 mm 3 mps 742 mmHg 86%
    04:00 +9°C° 0 mm 2 mps 743 mmHg 85%
    05:00 +9°C° 0 mm 2 mps 743 mmHg 84%
    06:00 +9°C° 0 mm 2 mps 744 mmHg 84%
    07:00 +12°C° 0 mm 2 mps 744 mmHg 76%
    08:00 +14°C° 0 mm 1 mps 744 mmHg 68%
    09:00 +16°C° 0 mm 1 mps 745 mmHg 60%
    10:00 +19°C° 0 mm 1 mps 745 mmHg 52%
    11:00 +20°C° 0 mm 1 mps 745 mmHg 43%
    12:00 +22°C° 0 mm 1 mps 745 mmHg 35%
    13:00 +22°C° 0 mm 1 mps 745 mmHg 36%
    14:00 +21°C° 0 mm 2 mps 744 mmHg 37%
    15:00 +20°C° 0 mm 2 mps 744 mmHg 39%
    16:00 +19°C° 0 mm 2 mps 744 mmHg 46%
    17:00 +17°C° 0 mm 3 mps 744 mmHg 52%
    18:00 +14°C° 0 mm 3 mps 744 mmHg 59%
    19:00 +14°C° 0 mm 3 mps 744 mmHg 59%
    20:00 +14°C° 0 mm 2 mps 744 mmHg 58%
    21:00 +13°C° 0 mm 2 mps 744 mmHg 57%
    22:00 +12°C° 0 mm 3 mps 744 mmHg 55%
    23:00 +12°C° 0 mm 3 mps 744 mmHg 52%
    Show more